Location: Artiguedieu
(43.5000°N, 0.5454°E)
Time: 18:56:36
(UTC+00:00)

Tiros 1 - All Passes

Search period start: 27 July 2021 00:00
Search period end: 06 August 2021 00:00
Orbit: 630 x 663 km, 48.4° (Epoch: 27 July)

Date Brightness Start Highest point End Pass type
(mag) Time Alt. Az. Time Alt. Az. Time Alt. Az.
27 Jul - 01:41:59 10° WNW 01:46:34 56° SSW 01:51:05 10° SE visible
27 Jul - 03:26:10 10° WSW 03:27:59 12° SW 03:29:47 10° SSW night (unlit)
27 Jul - 19:18:31 10° SW 19:23:01 43° SE 19:27:29 10° ENE daylight
27 Jul - 21:00:25 10° W 21:05:08 63° NNW 21:09:49 10° ENE visible
27 Jul - 22:43:16 10° WNW 22:47:49 46° N 22:52:19 10° ENE visible
28 Jul - 00:25:41 10° WNW 00:30:24 79° NNE 00:35:03 10° ESE visible
28 Jul - 02:08:17 10° W 02:12:17 28° SW 02:16:14 10° SSE visible
28 Jul - 18:03:42 10° S 18:07:09 20° SE 18:10:35 10° E daylight
28 Jul - 19:44:05 10° WSW 19:48:50 79° SSE 19:53:34 10° ENE daylight
28 Jul - 21:26:41 10° W 21:31:18 49° N 21:35:52 10° ENE visible
28 Jul - 23:09:24 10° WNW 23:14:01 53° NNE 23:18:36 10° E visible
29 Jul - 00:51:42 10° WNW 00:56:20 61° SSW 01:00:54 10° SE visible
29 Jul - 02:35:33 10° WSW 02:37:47 13° SW 02:40:01 10° SSW night (unlit)
29 Jul - 18:28:18 10° SSW 18:32:46 40° SE 18:37:12 10° ENE daylight
29 Jul - 20:10:07 10° WSW 20:14:51 66° NNW 20:19:34 10° ENE visible
29 Jul - 21:52:57 10° WNW 21:57:31 46° N 22:02:03 10° ENE visible
29 Jul - 23:35:25 10° WNW 23:40:08 76° NNE 23:44:48 10° ESE visible
30 Jul - 01:17:57 10° W 01:22:04 31° SW 01:26:07 10° SSE visible
30 Jul - 17:13:39 10° S 17:16:55 18° SE 17:20:12 10° E daylight
30 Jul - 18:53:49 10° SW 18:58:35 75° SSE 19:03:19 10° ENE daylight
30 Jul - 20:36:22 10° W 20:41:00 50° N 20:45:36 10° ENE visible
30 Jul - 22:19:06 10° WNW 22:23:45 52° NNE 22:28:19 10° E visible
31 Jul - 00:01:26 10° WNW 00:06:05 65° SSW 00:10:40 10° SE visible
31 Jul - 01:45:01 10° W 01:47:35 15° SW 01:50:09 10° SSW night (unlit)
31 Jul - 17:38:07 10° SSW 17:42:31 37° SE 17:46:54 10° ENE daylight
31 Jul - 19:19:48 10° WSW 19:24:34 69° NNW 19:29:18 10° ENE daylight
31 Jul - 21:02:39 10° WNW 21:07:14 45° N 21:11:46 10° ENE visible
31 Jul - 22:45:08 10° WNW 22:49:52 72° NNE 22:54:32 10° ESE visible
01 Aug - 00:27:37 10° WNW 00:31:50 33° SW 00:36:00 10° SSE visible
01 Aug - 16:23:38 10° S 16:26:43 17° SE 16:29:46 10° E daylight
01 Aug - 18:03:33 10° SW 18:08:19 70° SSE 18:13:03 10° ENE daylight
01 Aug - 19:46:03 10° W 19:50:43 51° N 19:55:20 10° ENE visible
01 Aug - 21:28:49 10° WNW 21:33:27 51° N 21:38:02 10° E visible
01 Aug - 23:11:08 10° WNW 23:15:50 69° SSW 23:20:27 10° SE visible
02 Aug - 00:54:31 10° W 00:57:24 16° SW 01:00:14 10° S visible
02 Aug - 16:47:57 10° SSW 16:52:17 35° SE 16:56:36 10° ENE daylight
02 Aug - 18:29:30 10° WSW 18:34:17 72° NNW 18:39:03 10° ENE daylight
02 Aug - 20:12:20 10° WNW 20:16:56 46° N 20:21:29 10° ENE visible
02 Aug - 21:54:51 10° WNW 21:59:35 69° NNE 22:04:16 10° ESE visible
02 Aug - 23:37:18 10° WNW 23:41:37 36° SW 23:45:51 10° SSE visible
03 Aug - 15:33:40 10° S 15:36:29 16° SE 15:39:19 10° E daylight
03 Aug - 17:13:18 10° SW 17:18:03 66° SSE 17:22:47 10° ENE daylight
03 Aug - 18:55:44 10° W 19:00:25 52° NNW 19:05:04 10° ENE daylight
03 Aug - 20:38:31 10° WNW 20:43:10 50° N 20:47:45 10° E visible
03 Aug - 22:20:51 10° WNW 22:25:35 74° SSW 22:30:14 10° SE visible
04 Aug - 00:04:04 10° W 00:07:11 18° SW 00:10:16 10° S visible
04 Aug - 15:57:47 10° SSW 16:02:02 32° SE 16:06:17 10° ENE daylight
04 Aug - 17:39:12 10° WSW 17:44:01 76° NNW 17:48:47 10° ENE daylight
04 Aug - 19:22:01 10° WNW 19:26:38 46° N 19:31:12 10° ENE daylight
04 Aug - 21:04:34 10° WNW 21:09:19 66° NNE 21:14:00 10° ESE visible
04 Aug - 22:46:59 10° WNW 22:51:23 39° SW 22:55:42 10° SSE visible
05 Aug - 14:43:43 10° SSE 14:46:16 14° SE 14:48:49 10° E daylight
05 Aug - 16:23:03 10° SW 16:27:47 62° SSE 16:32:30 10° ENE daylight
05 Aug - 18:05:25 10° W 18:10:08 54° NNW 18:14:48 10° ENE daylight
05 Aug - 19:48:13 10° WNW 19:52:52 49° N 19:57:27 10° E visible
05 Aug - 21:30:34 10° WNW 21:35:19 79° SSW 21:40:00 10° ESE visible
05 Aug - 23:13:38 10° W 23:16:58 19° SW 23:20:17 10° S visible
